sat.trackr.live / text

‹ back to catalog

STARLINK-5156

NORAD 53973 · 2022-125K

PAYLOAD ACTIVE UNKNOWN

§ Identity

Operator
Country
US
Launch date
2022-10-05
Launch site
AFWTR
Launch vehicle
Mass (kg)
RCS (m²)

Purposes: comms

External: N2YO · Heavens-Above · Gunter

§ Orbital elements

Epoch: 2026-05-24T23:55:41.676096Z

Period
95.44 min
Inclination
53.2166°
Eccentricity
0.0001581
Mean motion
15.08840643 rev/d
Perigee alt
538.6 km
Apogee alt
540.8 km
Semi-major
6,917.9 km
B*
1.3915e-4
RAAN
241.4414°
Arg perigee
87.5422°
Mean anomaly
272.5751°
Rev number
20,084

§ Raw data

STARLINK-51561 53973U 22125K   26144.99701014  .00001927  00000+0  13915-3 0  99972 53973  53.2166 241.4414 0001581  87.5422 272.5751 15.08840643200847

JSON: /api/v1/satellites/53973 · /tle

For live sub-satellite position, see the globe view (requires WebGL).

§ Visibility from observer

Set your observer location to see the next 7 days of passes ≥ 10°. The values pass through the URL so the page stays shareable.

No JS? Fill the form by hand. The geolocation button needs JavaScript.